Location: Azalea Creek
(37.1280°N, 119.2623°W)
Time: 04:20:36
(UTC+00:00)

Cosmos 1503 Rocket - Pass Details

Date: 17 February 2020
Orbit: 753 x 790 km, 74.0° (Epoch: 09 April)

Event Time Altitude Azimuth Distance (km) Brightness Sun altitude
Rises 02:43:04 0° 344° (NNW) 3,269 7.4 -13.6°
Reaches altitude 10° 02:45:29 10° 346° (NNW) 2,332 6.6 -14.1°
Maximum altitude 02:50:47 73° 71° (ENE) 806 3.9 -15.2°
Drops below altitude 10° 02:55:59 10° 157° (SSE) 2,292 6.3 -16.2°
Sets 02:58:20 0° 159° (SSE) 3,209 7.0 -16.7°
